Birmingham, AL

10:37 PM CST on January 19, 2018 (GMT -0600)
Birmingham International

Weather History for KBHM - November, 2011

Change the Weather History Date:

Friday, November 25, 2011

  Actual Average Record
Temperature  
Mean Temperature 54 °F 51 °F  
Max Temperature 69 °F 62 °F 78 °F (1921)
Min Temperature 38 °F 41 °F 5 °F (1950)
Degree Days  
Heating Degree Days 11 14  
Month to date heating degree days 201 258  
Since 1 July heating degree days 357 385  
Growing Degree Days 4 (Base 50)    
Moisture  
Dew Point 42 °F    
Average Humidity 66    
Maximum Humidity 93    
Minimum Humidity 39    
Precipitation  
Precipitation 0.00 in 0.17 in 2.50 in (1932)
Month to date precipitation 3.16 3.95  
Year to date precipitation 49.87 48.37  
Snow  
Snow 0.00 in 0.00 in - ()
Month to date snowfall 0.0 0.0  
Since 1 July snowfall 0.0 0.0  
Since 1 September snowfall 0.0 0.0  
Snow Depth 0.00 in    
Sea Level Pressure  
Sea Level Pressure 30.28 in    
Wind  
Wind Speed 4 mph (SSE)    
Max Wind Speed 20 mph    
Max Gust Speed 28 mph    
Visibility 10 miles    
Events      
T = Trace of Precipitation, MM = Missing Value Source: NWS Daily Summary

Daily Weather History Graph

Daily Weather History Graph

Search for Another Location

Airport or City:

Trip Planner

Search our weather history database for the weather conditions in past years. The results will help you decide how hot, cold, wet, or windy it might be!

Date:

Astronomy

Nov. 25, 2011 Rise Set
Actual Time 6:27 AM CST 4:39 PM CST
Civil Twilight 6:00 AM CST 5:06 PM CST
Nautical Twilight 5:30 AM CST 5:37 PM CST
Astronomical Twilight 5:00 AM CST 6:07 PM CST
Moon 6:52 AM CST (11/25) 5:10 PM CST (11/25)
Length of Visible Light 11h 06m
Length of Day
10h 12m
New Moon, 0% of the Moon is Illuminated
Nov 25
New Moon
Dec 2
First Quarter
Dec 10
Full
Dec 17
Last Quarter
Dec 24
New

Hourly Weather History & Observations

Time (CST) Temp. Dew Point Humidity Pressure Visibility Wind Dir Wind Speed Gust Speed Precip Events Conditions
12:53 AM 42.1 °F 39.0 °F 89% 30.32 in 9.0 mi Calm Calm - N/A   Clear
1:53 AM 41.0 °F 39.2 °F 93% 30.33 in 9.0 mi Calm Calm - N/A   Clear
2:53 AM 39.2 °F 37.4 °F 93% 30.33 in 10.0 mi Calm Calm - N/A   Clear
3:53 AM 39.9 °F 37.9 °F 93% 30.32 in 10.0 mi Calm Calm - N/A   Clear
4:53 AM 41.0 °F 35.1 °F 79% 30.33 in 10.0 mi Calm Calm - N/A   Clear
5:53 AM 39.9 °F 34.0 °F 79% 30.34 in 10.0 mi Calm Calm - N/A   Clear
6:53 AM 43.0 °F 35.1 °F 74% 30.35 in 10.0 mi Calm Calm - N/A   Clear
7:53 AM 52.0 °F 39.9 °F 63% 30.35 in 10.0 mi Calm Calm - N/A   Clear
8:53 AM 57.0 °F 39.9 °F 53% 30.35 in 10.0 mi SE 5.8 mph - N/A   Clear
9:53 AM 60.1 °F 43.0 °F 53% 30.36 in 10.0 mi SE 8.1 mph 19.6 mph N/A   Clear
10:53 AM 63.0 °F 46.0 °F 54% 30.34 in 10.0 mi South 13.8 mph 21.9 mph N/A   Clear
11:53 AM 66.0 °F 45.0 °F 47% 30.30 in 10.0 mi South 12.7 mph 19.6 mph N/A   Clear
12:53 PM 66.2 °F 42.8 °F 43% 30.27 in 10.0 mi SSE 12.7 mph - N/A   Clear
1:53 PM 68.0 °F 44.1 °F 42% 30.24 in 10.0 mi SE 9.2 mph - N/A   Clear
2:53 PM 68.0 °F 42.8 °F 40% 30.23 in 10.0 mi South 11.5 mph - N/A   Clear
3:53 PM 66.9 °F 45.0 °F 45% 30.22 in 10.0 mi SE 5.8 mph - N/A   Clear
4:53 PM 64.0 °F 44.1 °F 48% 30.21 in 10.0 mi SE 4.6 mph - N/A   Clear
5:53 PM 61.0 °F 44.1 °F 54% 30.22 in 10.0 mi Calm Calm - N/A   Clear
6:53 PM 57.0 °F 45.0 °F 64% 30.22 in 10.0 mi Calm Calm - N/A   Clear
7:53 PM 54.0 °F 45.0 °F 72% 30.22 in 10.0 mi Calm Calm - N/A   Clear
8:53 PM 57.2 °F 46.4 °F 67% 30.22 in 10.0 mi SE 3.5 mph - N/A   Clear
9:53 PM 57.0 °F 46.0 °F 67% 30.21 in 10.0 mi Calm Calm - N/A   Clear
10:53 PM 59.0 °F 46.9 °F 64% 30.20 in 10.0 mi SSE 6.9 mph - N/A   Clear
11:53 PM 59.0 °F 46.9 °F 64% 30.19 in 10.0 mi Variable 3.5 mph - N/A   Clear